Regional Weather Roundup
Issued by NWS

Home | Current Version | Previous Version | Text Only | Print | Product List | Glossary On
Versions: 1 2 3 4 5 6 7 8 9 10 11 12 13 14 15 16 17 18 19 20 21 22 23 24 25 26 27 28 29 30 31 32 33 34 35 36 37 38 39 40 41 42 43 44 45 46 47 48 49 50
000
ASUS45 KREV 260110
RWRNV
NEVADA REGIONAL WEATHER ROUNDUP
NATIONAL WEATHER SERVICE RENO NV
500 PM PST SUN JAN 25 2015

NOTE: "FAIR" INDICATES FEW OR NO CLOUDS BELOW 12,000 FEET WITH NO
SIGNIFICANT WEATHER AND/OR OBSTRUCTIONS TO VISIBILITY.

NVZ001-003-004-260200-
WESTERN NEVADA

CITY           SKY/WX    TMP DP  RH WIND       PRES   REMARKS
RENO           FAIR      58  26  29 E8        30.28S
CARSON CITY    FAIR      52  25  35 E13       30.29S
PYRAMID LAKE     N/A     48 N/A N/A NW3         N/A
FALLON         CLEAR     54  22  28 N6        30.29S
LOVELOCK       CLEAR     55  25  31 CALM      30.29S
HAWTHORNE      CLEAR     50  23  34 CALM      30.29F
$$

NVZ002-CAZ072-073-260200-
NORTHERN AND CENTRAL SIERRA

CITY           SKY/WX    TMP DP  RH WIND       PRES   REMARKS
S. LAKE TAHOE  CLEAR     52  24  33 VRB3      30.27R
TRUCKEE        CLEAR     52  25  35 N8        30.27S
SQUAW VLY 8000   N/A     43  25  49 CALM        N/A
SUSANVILLE     CLEAR     52  32  46 CALM      30.28
BLUE CANYON    CLEAR     63  24  22 NE7       30.20F
MAMMOTH LAKES  FAIR      54  18  24 SE10G17   30.31S
BRIDGEPORT     FAIR      54  17  23 CALM      30.28R
$$

NVZ030-031-036-260200-
NORTHERN NEVADA

CITY           SKY/WX    TMP DP  RH WIND       PRES   REMARKS
ELKO           PTCLDY    48  34  58 E3        30.35F
WINNEMUCCA     PTCLDY    52  32  46 NE6       30.31F
WENDOVER       PTCLDY    39  28  65 CALM      30.42S
$$

NVZ035-037-260200-
CENTRAL NEVADA

CITY           SKY/WX    TMP DP  RH WIND       PRES   REMARKS
ELY            CLEAR     49  29  46 N6        30.37R
EUREKA           N/A     48  33  56 CALM      30.37S
$$

NVZ013-014-260200-
SOUTH CENTRAL NEVADA

CITY           SKY/WX    TMP DP  RH WIND       PRES   REMARKS
TONOPAH        CLEAR     58  25  28 NW9       30.29S
$$

NVZ017-020-022-260200-
SOUTHERN NEVADA

CITY           SKY/WX    TMP DP  RH WIND       PRES   REMARKS
LAS VEGAS      PTCLDY    70  31  23 W3        30.11S
N. LAS VEGAS   PTCLDY    71  29  21 CALM      30.14F
NELLIS AFB     PTCLDY    69  35  27 NE9       30.12F
HENDERSON      PTCLDY    66  35  31 NE5       30.17F
MERCURY        CLEAR     68  28  22 E10       30.17R
$$



USA.gov is the U.S. government's official web portal to all federal, state and local government web resources and services.